Location: Varese
(45.8000°N, 8.8330°E)
Time: 08:46:59
(UTC+02:00)

ISS - Pass Details

Date: 15 May 2021
Orbit: 419 x 422 km, 51.6° (Epoch: 24 June)

Event Time Altitude Azimuth Distance (km) Brightness Sun altitude
Rises 21:58:54 0° 219° (SW) 2,389 0.1 -10.6°
Reaches altitude 10° 22:01:04 10° 211° (SSW) 1,531 -1.0 -10.9°
Maximum altitude 22:04:17 38° 142° (SE) 685 -3.2 -11.3°
Drops below altitude 10° 22:07:34 10° 73° (ENE) 1,556 -1.2 -11.7°
Sets 22:09:47 0° 65° (ENE) 2,434 -0.1 -12.0°
